• In Deutschland
  • Länderverzeichnis
  • Für 7 Tage
  • Wassertemperatur
  • Satellitenkarten
  • Wetterkarte
  • Widgets
  • user-avatar
    Anmelden

    Stündliche Wetter Weiden

    Heute, 23 Juli, Montag

    Zeit Temperatur Niederschläge Wind Luftdruck Luftfeuchtigkeit
    00:00 +18°C° 0,2 mm 1 m/S 726 mmHg 93%
    01:00 +18°C° 0 mm 1 m/S 727 mmHg 93%
    02:00 +18°C° 0,4 mm 1 m/S 727 mmHg 93%
    03:00 +18°C° 0,4 mm 1 m/S 727 mmHg 93%
    04:00 +16°C° 0,4 mm 1 m/S 727 mmHg 92%
    05:00 +18°C° 0,2 mm 1 m/S 727 mmHg 91%
    06:00 +19°C° 0,2 mm 1 m/S 727 mmHg 89%
    07:00 +20°C° 0 mm 1 m/S 727 mmHg 86%
    08:00 +21°C° 0,6 mm 1 m/S 728 mmHg 81%
    09:00 +23°C° 0,6 mm 1 m/S 728 mmHg 76%
    10:00 +24°C° 0,6 mm 2 m/S 728 mmHg 71%
    11:00 +25°C° 0,5 mm 2 m/S 728 mmHg 67%
    12:00 +26°C° 0,5 mm 2 m/S 728 mmHg 62%
    13:00 +27°C° 0,5 mm 2 m/S 728 mmHg 57%
    14:00 +27°C° 0,3 mm 2 m/S 728 mmHg 58%
    15:00 +27°C° 0,3 mm 2 m/S 728 mmHg 58%
    16:00 +27°C° 0,3 mm 2 m/S 728 mmHg 59%
    17:00 +26°C° 0,2 mm 2 m/S 728 mmHg 65%
    18:00 +25°C° 0,2 mm 1 m/S 728 mmHg 72%
    19:00 +23°C° 0,2 mm 1 m/S 728 mmHg 78%
    20:00 +22°C° 0 mm 1 m/S 728 mmHg 82%
    21:00 +20°C° 0 mm 1 m/S 728 mmHg 85%
    22:00 +19°C° 0 mm 1 m/S 728 mmHg 89%
    23:00 +19°C° 0 mm 1 m/S 728 mmHg 90%

    Morgen, 24 Juli, Dienstag

    Zeit Temperatur Niederschläge Wind Luftdruck Luftfeuchtigkeit
    00:00 +18°C° 0 mm 1 m/S 728 mmHg 91%
    01:00 +16°C° 0 mm 0 m/S 728 mmHg 91%
    02:00 +15°C° 0 mm 0 m/S 728 mmHg 92%
    03:00 +15°C° 0 mm 0 m/S 727 mmHg 92%
    04:00 +15°C° 0 mm 0 m/S 727 mmHg 92%
    05:00 +16°C° 0 mm 0 m/S 727 mmHg 89%
    06:00 +19°C° 0 mm 1 m/S 728 mmHg 85%
    07:00 +21°C° 0 mm 1 m/S 728 mmHg 82%
    08:00 +23°C° 0 mm 1 m/S 728 mmHg 73%
    09:00 +24°C° 0 mm 1 m/S 728 mmHg 64%
    10:00 +26°C° 0 mm 1 m/S 728 mmHg 55%
    11:00 +27°C° 0 mm 2 m/S 728 mmHg 52%
    12:00 +28°C° 0 mm 2 m/S 727 mmHg 48%
    13:00 +29°C° 0 mm 2 m/S 727 mmHg 45%
    14:00 +29°C° 0 mm 2 m/S 727 mmHg 45%
    15:00 +29°C° 0 mm 2 m/S 727 mmHg 45%
    16:00 +29°C° 0 mm 2 m/S 726 mmHg 45%
    17:00 +28°C° 0 mm 2 m/S 726 mmHg 53%
    18:00 +26°C° 0 mm 2 m/S 726 mmHg 61%
    19:00 +25°C° 0 mm 2 m/S 726 mmHg 69%
    20:00 +23°C° 0 mm 1 m/S 726 mmHg 73%
    21:00 +22°C° 0 mm 1 m/S 726 mmHg 77%
    22:00 +20°C° 0 mm 1 m/S 726 mmHg 82%
    23:00 +20°C° 0 mm 1 m/S 726 mmHg 83%

    übermorgen, 25 Juli, Mittwoch

    Zeit Temperatur Niederschläge Wind Luftdruck Luftfeuchtigkeit
    00:00 +19°C° 0 mm 1 m/S 726 mmHg 85%
    01:00 +19°C° 0 mm 1 m/S 726 mmHg 86%
    02:00 +18°C° 0 mm 1 m/S 726 mmHg 88%
    03:00 +18°C° 0 mm 1 m/S 726 mmHg 89%
    04:00 +18°C° 0 mm 1 m/S 726 mmHg 90%
    05:00 +19°C° 0 mm 1 m/S 727 mmHg 86%
    06:00 +21°C° 0 mm 1 m/S 727 mmHg 81%
    07:00 +22°C° 0 mm 1 m/S 727 mmHg 76%
    08:00 +24°C° 0 mm 1 m/S 727 mmHg 70%
    09:00 +26°C° 0 mm 1 m/S 728 mmHg 63%
    10:00 +28°C° 0 mm 2 m/S 728 mmHg 56%
    11:00 +28°C° 0,1 mm 2 m/S 728 mmHg 54%
    12:00 +29°C° 0,1 mm 2 m/S 727 mmHg 51%
    13:00 +30°C° 0,1 mm 2 m/S 727 mmHg 49%
    14:00 +29°C° 0 mm 2 m/S 727 mmHg 50%
    15:00 +29°C° 0 mm 2 m/S 727 mmHg 50%
    16:00 +29°C° 0 mm 2 m/S 727 mmHg 51%
    17:00 +28°C° 0,1 mm 2 m/S 727 mmHg 59%
    18:00 +26°C° 0,1 mm 2 m/S 727 mmHg 66%
    19:00 +25°C° 0,1 mm 2 m/S 727 mmHg 74%
    20:00 +24°C° 0 mm 2 m/S 727 mmHg 78%
    21:00 +22°C° 0 mm 1 m/S 727 mmHg 82%
    22:00 +21°C° 0 mm 1 m/S 727 mmHg 86%
    23:00 +20°C° 0 mm 1 m/S 727 mmHg 87%

    26 Juli, Donnerstag

    Zeit Temperatur Niederschläge Wind Luftdruck Luftfeuchtigkeit
    00:00 +20°C° 0 mm 1 m/S 727 mmHg 87%
    01:00 +19°C° 0 mm 1 m/S 727 mmHg 88%
    02:00 +19°C° 0 mm 1 m/S 727 mmHg 88%
    03:00 +19°C° 0 mm 1 m/S 727 mmHg 89%
    04:00 +18°C° 0 mm 1 m/S 727 mmHg 89%
    05:00 +20°C° 0 mm 1 m/S 727 mmHg 86%
    06:00 +21°C° 0 mm 1 m/S 727 mmHg 82%
    07:00 +22°C° 0 mm 1 m/S 728 mmHg 79%
    08:00 +24°C° 0 mm 2 m/S 728 mmHg 71%
    09:00 +26°C° 0 mm 2 m/S 728 mmHg 63%
    10:00 +27°C° 0 mm 3 m/S 728 mmHg 55%
    11:00 +28°C° 0 mm 3 m/S 728 mmHg 51%
    12:00 +29°C° 0 mm 3 m/S 727 mmHg 48%
    13:00 +29°C° 0 mm 3 m/S 727 mmHg 45%
    14:00 +29°C° 0 mm 3 m/S 727 mmHg 45%
    15:00 +29°C° 0 mm 3 m/S 727 mmHg 45%
    16:00 +29°C° 0 mm 3 m/S 727 mmHg 45%
    17:00 +28°C° 0 mm 3 m/S 727 mmHg 53%
    18:00 +27°C° 0 mm 2 m/S 727 mmHg 61%
    19:00 +25°C° 0 mm 2 m/S 727 mmHg 68%
    20:00 +24°C° 0 mm 2 m/S 727 mmHg 73%
    21:00 +21°C° 0 mm 2 m/S 727 mmHg 77%
    22:00 +20°C° 0 mm 2 m/S 727 mmHg 82%
    23:00 +21°C° 0 mm 1 m/S 727 mmHg 84%

    27 Juli, Freitag

    Zeit Temperatur Niederschläge Wind Luftdruck Luftfeuchtigkeit
    00:00 +20°C° 0 mm 1 m/S 727 mmHg 86%
    01:00 +19°C° 0 mm 1 m/S 727 mmHg 89%
    02:00 +19°C° 0 mm 1 m/S 727 mmHg 90%
    03:00 +19°C° 0 mm 1 m/S 726 mmHg 91%
    04:00 +18°C° 0 mm 1 m/S 726 mmHg 91%
    05:00 +20°C° 0 mm 1 m/S 726 mmHg 87%
    06:00 +21°C° 0 mm 1 m/S 727 mmHg 82%
    07:00 +22°C° 0 mm 1 m/S 727 mmHg 77%
    08:00 +24°C° 0 mm 2 m/S 727 mmHg 69%
    09:00 +26°C° 0 mm 2 m/S 727 mmHg 61%
    10:00 +27°C° 0 mm 2 m/S 727 mmHg 52%
    11:00 +28°C° 0 mm 2 m/S 727 mmHg 50%
    12:00 +29°C° 0 mm 2 m/S 727 mmHg 47%
    13:00 +29°C° 0 mm 1 m/S 726 mmHg 45%
    14:00 +29°C° 0 mm 1 m/S 726 mmHg 45%
    15:00 +29°C° 0 mm 2 m/S 726 mmHg 45%
    16:00 +29°C° 0 mm 2 m/S 726 mmHg 45%
    17:00 +28°C° 0 mm 2 m/S 726 mmHg 52%
    18:00 +27°C° 0 mm 1 m/S 726 mmHg 59%
    19:00 +26°C° 0 mm 1 m/S 726 mmHg 66%
    20:00 +24°C° 0 mm 1 m/S 726 mmHg 70%
    21:00 +22°C° 0 mm 1 m/S 726 mmHg 74%
    22:00 +21°C° 0 mm 1 m/S 726 mmHg 78%
    23:00 +20°C° 0 mm 1 m/S 726 mmHg 80%

    28 Juli, Samstag

    Zeit Temperatur Niederschläge Wind Luftdruck Luftfeuchtigkeit
    00:00 +20°C° 0 mm 1 m/S 726 mmHg 83%
    01:00 +17°C° 0 mm 0 m/S 726 mmHg 85%
    02:00 +17°C° 0 mm 0 m/S 726 mmHg 86%
    03:00 +17°C° 0 mm 0 m/S 726 mmHg 87%
    04:00 +17°C° 0 mm 0 m/S 726 mmHg 88%
    05:00 +18°C° 0 mm 0 m/S 726 mmHg 84%
    06:00 +19°C° 0 mm 0 m/S 726 mmHg 79%
    07:00 +21°C° 0 mm 0 m/S 726 mmHg 74%
    08:00 +25°C° 0 mm 1 m/S 726 mmHg 67%
    09:00 +27°C° 0 mm 1 m/S 727 mmHg 60%
    10:00 +28°C° 0 mm 1 m/S 727 mmHg 53%
    11:00 +29°C° 0,2 mm 2 m/S 726 mmHg 50%
    12:00 +30°C° 0,2 mm 2 m/S 726 mmHg 47%
    13:00 +31°C° 0,2 mm 2 m/S 726 mmHg 43%
    14:00 +30°C° 0,2 mm 2 m/S 726 mmHg 45%
    15:00 +30°C° 0,2 mm 2 m/S 726 mmHg 47%
    16:00 +30°C° 0,2 mm 3 m/S 726 mmHg 49%
    17:00 +28°C° 0,4 mm 2 m/S 726 mmHg 58%
    18:00 +27°C° 0,4 mm 2 m/S 726 mmHg 67%
    19:00 +25°C° 0,4 mm 1 m/S 726 mmHg 75%
    20:00 +24°C° 0 mm 1 m/S 726 mmHg 79%
    21:00 +23°C° 0 mm 1 m/S 726 mmHg 82%
    22:00 +20°C° 0 mm 0 m/S 726 mmHg 85%
    23:00 +19°C° 0 mm 0 m/S 726 mmHg 86%
    Mehr zeigen